• In Österreich
  • Länderverzeichnis
  • Für 7 Tage
  • Wassertemperatur
  • Satellitenkarten
  • Wetterkarte
  • News
  • Widgets
  • user-avatar
    Anmelden

    Stündliche Wetter Albena

    Heute, 15 August, Mittwoch

    Zeit Temperatur Niederschläge Wind Luftdruck Luftfeuchtigkeit
    00:00 +20°C° 0 mm 2 m/S 745 mmHg 85%
    01:00 +20°C° 0 mm 2 m/S 745 mmHg 86%
    02:00 +20°C° 0 mm 2 m/S 745 mmHg 88%
    03:00 +19°C° 0 mm 2 m/S 745 mmHg 88%
    04:00 +19°C° 0 mm 3 m/S 744 mmHg 88%
    05:00 +19°C° 0 mm 3 m/S 744 mmHg 88%
    06:00 +21°C° 0 mm 3 m/S 745 mmHg 80%
    07:00 +24°C° 0 mm 3 m/S 745 mmHg 71%
    08:00 +26°C° 0 mm 3 m/S 745 mmHg 61%
    09:00 +28°C° 0 mm 4 m/S 745 mmHg 53%
    10:00 +30°C° 0 mm 4 m/S 745 mmHg 45%
    11:00 +32°C° 0 mm 5 m/S 745 mmHg 37%
    12:00 +33°C° 0 mm 5 m/S 745 mmHg 36%
    13:00 +33°C° 0 mm 5 m/S 745 mmHg 35%
    14:00 +34°C° 0 mm 5 m/S 744 mmHg 34%
    15:00 +33°C° 0 mm 5 m/S 744 mmHg 36%
    16:00 +32°C° 0 mm 5 m/S 744 mmHg 38%
    17:00 +32°C° 0 mm 5 m/S 744 mmHg 40%
    18:00 +29°C° 0 mm 4 m/S 744 mmHg 48%
    19:00 +27°C° 0 mm 4 m/S 744 mmHg 56%
    20:00 +24°C° 0 mm 3 m/S 744 mmHg 64%
    21:00 +24°C° 0 mm 3 m/S 744 mmHg 67%
    22:00 +22°C° 0 mm 3 m/S 744 mmHg 69%
    23:00 +21°C° 0 mm 3 m/S 744 mmHg 71%

    Morgen, 16 August, Donnerstag

    Zeit Temperatur Niederschläge Wind Luftdruck Luftfeuchtigkeit
    00:00 +21°C° 0 mm 3 m/S 744 mmHg 70%
    01:00 +21°C° 0 mm 3 m/S 744 mmHg 69%
    02:00 +21°C° 0 mm 3 m/S 744 mmHg 68%
    03:00 +20°C° 0 mm 4 m/S 743 mmHg 67%
    04:00 +20°C° 0 mm 4 m/S 743 mmHg 65%
    05:00 +20°C° 0 mm 4 m/S 743 mmHg 64%
    06:00 +22°C° 0 mm 4 m/S 743 mmHg 60%
    07:00 +23°C° 0 mm 5 m/S 744 mmHg 56%
    08:00 +26°C° 0 mm 5 m/S 744 mmHg 51%
    09:00 +28°C° 0 mm 5 m/S 744 mmHg 47%
    10:00 +30°C° 0 mm 5 m/S 744 mmHg 42%
    11:00 +33°C° 0 mm 5 m/S 744 mmHg 37%
    12:00 +34°C° 0 mm 5 m/S 744 mmHg 35%
    13:00 +34°C° 0 mm 6 m/S 744 mmHg 34%
    14:00 +35°C° 0 mm 6 m/S 744 mmHg 32%
    15:00 +34°C° 0 mm 6 m/S 743 mmHg 34%
    16:00 +33°C° 0 mm 5 m/S 743 mmHg 37%
    17:00 +33°C° 0 mm 5 m/S 743 mmHg 39%
    18:00 +29°C° 0 mm 4 m/S 743 mmHg 47%
    19:00 +27°C° 0 mm 4 m/S 743 mmHg 56%
    20:00 +25°C° 0 mm 3 m/S 743 mmHg 64%
    21:00 +24°C° 0 mm 2 m/S 743 mmHg 65%
    22:00 +24°C° 0 mm 2 m/S 743 mmHg 66%
    23:00 +23°C° 0 mm 2 m/S 743 mmHg 68%

    übermorgen, 17 August, Freitag

    Zeit Temperatur Niederschläge Wind Luftdruck Luftfeuchtigkeit
    00:00 +23°C° 0 mm 2 m/S 743 mmHg 66%
    01:00 +22°C° 0 mm 3 m/S 743 mmHg 64%
    02:00 +22°C° 0 mm 3 m/S 743 mmHg 62%
    03:00 +22°C° 0 mm 4 m/S 743 mmHg 61%
    04:00 +21°C° 0 mm 4 m/S 743 mmHg 61%
    05:00 +21°C° 0 mm 4 m/S 743 mmHg 61%
    06:00 +22°C° 0 mm 5 m/S 743 mmHg 57%
    07:00 +25°C° 0 mm 5 m/S 743 mmHg 54%
    08:00 +26°C° 0 mm 5 m/S 744 mmHg 51%
    09:00 +28°C° 0 mm 5 m/S 744 mmHg 47%
    10:00 +30°C° 0 mm 5 m/S 744 mmHg 42%
    11:00 +33°C° 0 mm 6 m/S 744 mmHg 38%
    12:00 +33°C° 0 mm 5 m/S 744 mmHg 38%
    13:00 +34°C° 0 mm 5 m/S 744 mmHg 37%
    14:00 +34°C° 0 mm 5 m/S 743 mmHg 37%
    15:00 +34°C° 0 mm 5 m/S 743 mmHg 39%
    16:00 +33°C° 0 mm 5 m/S 743 mmHg 41%
    17:00 +33°C° 0 mm 5 m/S 743 mmHg 44%
    18:00 +29°C° 0 mm 4 m/S 743 mmHg 52%
    19:00 +27°C° 0 mm 4 m/S 744 mmHg 59%
    20:00 +25°C° 0 mm 3 m/S 744 mmHg 67%
    21:00 +25°C° 0 mm 3 m/S 744 mmHg 69%
    22:00 +24°C° 0 mm 2 m/S 744 mmHg 71%
    23:00 +23°C° 0 mm 2 m/S 744 mmHg 72%

    18 August, Samstag

    Zeit Temperatur Niederschläge Wind Luftdruck Luftfeuchtigkeit
    00:00 +23°C° 0 mm 2 m/S 744 mmHg 70%
    01:00 +22°C° 0 mm 3 m/S 744 mmHg 68%
    02:00 +22°C° 0 mm 3 m/S 744 mmHg 65%
    03:00 +22°C° 0 mm 3 m/S 744 mmHg 64%
    04:00 +21°C° 0 mm 4 m/S 744 mmHg 63%
    05:00 +21°C° 0 mm 4 m/S 744 mmHg 62%
    06:00 +23°C° 0 mm 4 m/S 744 mmHg 57%
    07:00 +25°C° 0 mm 4 m/S 745 mmHg 52%
    08:00 +27°C° 0 mm 4 m/S 745 mmHg 46%
    09:00 +29°C° 0 mm 5 m/S 745 mmHg 41%
    10:00 +32°C° 0 mm 5 m/S 745 mmHg 35%
    11:00 +35°C° 0 mm 5 m/S 745 mmHg 29%
    12:00 +35°C° 0 mm 6 m/S 745 mmHg 29%
    13:00 +35°C° 0 mm 6 m/S 744 mmHg 29%
    14:00 +36°C° 0 mm 6 m/S 744 mmHg 28%
    15:00 +35°C° 0 mm 6 m/S 744 mmHg 31%
    16:00 +34°C° 0 mm 6 m/S 744 mmHg 33%
    17:00 +33°C° 0 mm 6 m/S 744 mmHg 36%
    18:00 +30°C° 0 mm 6 m/S 744 mmHg 43%
    19:00 +28°C° 0 mm 5 m/S 745 mmHg 51%
    20:00 +26°C° 0 mm 4 m/S 745 mmHg 59%
    21:00 +25°C° 0 mm 4 m/S 745 mmHg 62%
    22:00 +24°C° 0 mm 3 m/S 745 mmHg 65%
    23:00 +24°C° 0 mm 3 m/S 745 mmHg 68%

    19 August, Sonntag

    Zeit Temperatur Niederschläge Wind Luftdruck Luftfeuchtigkeit
    00:00 +22°C° 0 mm 3 m/S 745 mmHg 66%
    01:00 +22°C° 0 mm 3 m/S 745 mmHg 65%
    02:00 +22°C° 0 mm 3 m/S 745 mmHg 64%
    03:00 +22°C° 0 mm 3 m/S 745 mmHg 63%
    04:00 +22°C° 0 mm 4 m/S 745 mmHg 62%
    05:00 +21°C° 0 mm 4 m/S 745 mmHg 61%
    06:00 +23°C° 0 mm 4 m/S 745 mmHg 56%
    07:00 +26°C° 0 mm 4 m/S 746 mmHg 51%
    08:00 +27°C° 0 mm 4 m/S 746 mmHg 45%
    09:00 +29°C° 0 mm 5 m/S 746 mmHg 39%
    10:00 +32°C° 0 mm 5 m/S 746 mmHg 34%
    11:00 +35°C° 0 mm 5 m/S 746 mmHg 28%
    12:00 +35°C° 0 mm 6 m/S 746 mmHg 27%
    13:00 +35°C° 0 mm 6 m/S 746 mmHg 26%
    14:00 +36°C° 0 mm 6 m/S 746 mmHg 26%
    15:00 +35°C° 0 mm 6 m/S 746 mmHg 29%
    16:00 +34°C° 0 mm 6 m/S 746 mmHg 31%
    17:00 +33°C° 0 mm 6 m/S 746 mmHg 34%
    18:00 +30°C° 0 mm 5 m/S 746 mmHg 43%
    19:00 +27°C° 0 mm 4 m/S 746 mmHg 52%
    20:00 +25°C° 0 mm 3 m/S 746 mmHg 60%
    21:00 +25°C° 0 mm 3 m/S 746 mmHg 62%
    22:00 +24°C° 0 mm 2 m/S 746 mmHg 63%
    23:00 +24°C° 0 mm 2 m/S 746 mmHg 65%

    20 August, Montag

    Zeit Temperatur Niederschläge Wind Luftdruck Luftfeuchtigkeit
    00:00 +23°C° 0 mm 2 m/S 746 mmHg 64%
    01:00 +22°C° 0 mm 3 m/S 746 mmHg 63%
    02:00 +22°C° 0 mm 3 m/S 746 mmHg 62%
    03:00 +22°C° 0 mm 3 m/S 746 mmHg 62%
    04:00 +22°C° 0 mm 3 m/S 746 mmHg 63%
    05:00 +21°C° 0 mm 3 m/S 746 mmHg 63%
    06:00 +24°C° 0 mm 3 m/S 747 mmHg 61%
    07:00 +25°C° 0 mm 4 m/S 747 mmHg 59%
    08:00 +27°C° 0 mm 4 m/S 747 mmHg 57%
    09:00 +29°C° 0 mm 4 m/S 747 mmHg 51%
    10:00 +32°C° 0 mm 4 m/S 747 mmHg 45%
    11:00 +33°C° 0 mm 4 m/S 747 mmHg 40%
    12:00 +33°C° 0 mm 4 m/S 747 mmHg 39%
    13:00 +33°C° 0 mm 4 m/S 747 mmHg 39%
    14:00 +33°C° 0 mm 4 m/S 747 mmHg 39%
    15:00 +33°C° 0 mm 3 m/S 747 mmHg 41%
    16:00 +31°C° 0 mm 3 m/S 747 mmHg 42%
    17:00 +31°C° 0 mm 3 m/S 747 mmHg 44%
    18:00 +29°C° 0,6 mm 2 m/S 747 mmHg 52%
    19:00 +27°C° 0,6 mm 2 m/S 747 mmHg 59%
    20:00 +25°C° 0,6 mm 1 m/S 747 mmHg 67%
    21:00 +25°C° 0,3 mm 1 m/S 747 mmHg 68%
    22:00 +24°C° 0,3 mm 1 m/S 747 mmHg 69%
    23:00 +24°C° 0,3 mm 1 m/S 747 mmHg 70%
    Mehr zeigen